www.pogodaiklimat.ru

Погода и климат >> Архив погоды >> Таиланд >> Лаем-Чабанг


ПОГОДА в Лаем-Чабанге

  • Прогноз погоды в Лаем-Чабанге
  • Монитор погоды в Лаем-Чабанге

АРХИВ ПОГОДЫ в Лаем-Чабанге

Время (UTC), дата Ветер
(напр.,м/с)
 
Видим.   Явления Облачность Т
(С)
Тd
(С)
f
(%)
Тe
(С)
Тes
(С)
Комфортность P
(гПа)
Po
(гПа)
Тmin
(С)
Tmax
(С)
R
(мм)
R24
(мм)
S
(см)
09 12.02 З 10 10 км 8/3 600 м
[Cu med, cong Cs]
+31.8 +24.1 64 +44 +44 опасность
перегрева
1014.3 1005.1
12 12.02 ЮЗ 8 10 км 8/3 600 м
[Cu med, cong Cs]
+28.1 +23.4 76 +38 +38 очень
душно
1015.2 1005.9 +34.8
00 13.02 штиль 0 3000 м дымка 6/0
[Cs]
+26.5 +24.3 88 +37 +37 очень
душно
1016.8 1007.4 +26.0
03 13.02 штиль 0 6000 м дымка 6/3 600 м
[Cu med, cong Cs]
+31.2 +25.4 71 +45 +55 опасность
перегрева
1018.2 1008.9
06 13.02 З 8 7000 м мгла 6/3 600 м
[Cu med, cong Cs]
+35.6 +24.9 54 +49 +51 опасность
перегрева
1015.3 1006.2
09 13.02 ЮЗ 7 4000 м мгла 5/0
[Cs]
+33.8 +24.9 60 +47 +49 опасность
перегрева
1013.1 1004.0
12 13.02 ЮЗ 10 6000 м дымка 8/0
[Cs]
+28.3 +24.4 79 +40 +40 очень
душно
1014.3 1005.0 +37.0
00 14.02 штиль 0 3000 м дымка 8/3 600 м
[Cu med, cong Cs]
+26.6 +24.0 86 +37 +37 очень
душно
1015.0 1005.6 +26.0
03 14.02 ЮЗ 6 8000 м мгла 8/3 600 м
[Cu med, cong Cs]
+31.5 +23.7 63 +43 +45 опасность
перегрева
1016.6 1007.3
06 14.02 З 7 8000 м мгла 6/3 600 м
[Cu med, cong Cs]
+34.5 +23.8 54 +46 +49 опасность
перегрева
1014.1 1005.0
09 14.02 З 10 8000 м мгла 6/3 600 м
[Cu med, cong Cs]
+33.8 +24.1 57 +46 +46 опасность
перегрева
1011.7 1002.6
12 14.02 Ю 11 8000 м дымка 8/3 600 м
[Cu med, cong Cs]
+28.0 +23.3 76 +38 +38 очень
душно
1013.3 1003.9 +37.0
00 15.02 Ю 6 8000 м дымка 8/3 600 м
[Cu med, cong Cs]
+26.5 +23.6 84 +36 +36 очень
душно
1014.7 1005.3 +25.7
03 15.02 Ю 3 8000 м мгла 8/1 600 м
[Cu hum Cs]
+31.3 +23.7 64 +42 +50 опасность
перегрева
1015.6 1006.3
06 15.02 З 4 8000 м мгла 8/1 600 м
[Cu hum Cs]
+34.0 +24.0 56 +46 +54 опасность
перегрева
1013.4 1004.3
09 15.02 ЮЗ 10 8000 м мгла 8/3 600 м
[Cu med, cong Cs]
+31.0 +23.5 64 +42 +42 опасность
перегрева
1011.6 1002.3
12 15.02 ЮЗ 10 7000 м дымка 8/3 600 м
[Cu med, cong Cs]
+27.8 +23.7 78 +38 +38 очень
душно
1013.1 1003.8 +34.5
00 16.02 ЮВ 4 6000 м дымка 4/1 600 м
[Cu hum Cs]
+26.5 +22.8 80 +35 +35 очень
душно
1015.3 1005.9 +26.0
03 16.02 ЮЗ 6 8000 м дымка 4/1 600 м
[Cu hum Cs]
+30.0 +22.7 65 +40 +43 очень
душно
1017.0 1007.7
06 16.02 ЮЗ 4 8000 м мгла 4/1 600 м
[Cu hum Cs]
+34.5 +23.5 53 +45 +55 опасность
перегрева
1014.3 1005.1
09 16.02 ЮЗ 6 8000 м дымка 8/3 600 м
[Cu Sc Cs]
+29.5 +22.9 68 +39 +41 очень
душно
1012.5 1003.2
12 16.02 ЮЗ 8 7000 м дымка 9/3 600 м
[Cu Sc Cs]
+28.0 +22.9 74 +37 +37 очень
душно
1013.6 1004.2 +35.0
00 17.02 Ю 4 6000 м дымка 8/3 600 м
[Cu med, cong Cs]
+26.3 +23.2 83 +35 +35 очень
душно
1014.0 1004.6 +25.8
03 17.02 ЮЗ 6 8000 м мгла 8/3 600 м
[Cu med, cong Cs]
+30.5 +22.1 61 +39 +42 очень
душно
1015.6 1006.3
06 17.02 З 8 9000 м мгла 5/1 600 м
[Cu med, cong Cs]
+33.5 +22.6 53 +43 +46 опасность
перегрева
1013.5 1004.3
09 17.02 ЮЗ 10 9000 м мгла 4/1 600 м
[Cu hum Cs]
+30.5 +22.4 62 +40 +40 очень
душно
1010.8 1001.5
12 17.02 ЮЗ 10 9000 м дымка 5/1 600 м
[Cu hum Cs]
+28.5 +22.6 70 +37 +37 очень
душно
1011.8 1002.5 +34.0
00 18.02 штиль 0 6000 м дымка 4/1 600 м
[Cu hum Cs]
+26.5 +22.8 80 +35 +36 очень
душно
1013.0 1003.6 +26.0
03 18.02 ЮЗ 4 8000 м дымка 4/1 600 м
[Cu hum Cs]
+30.0 +22.7 65 +40 +46 очень
душно
1014.7 1005.4
06 18.02 ЮЗ 8 8000 м мгла 4/3 600 м
[Sc Cs]
+31.4 +22.8 60 +41 +43 опасность
перегрева
1012.6 1003.4
09 18.02 ЮЗ 8 10 км 4/3 600 м
[Cu hum Cs]
+31.0 +22.5 61 +41 +41 опасность
перегрева
1009.8 1000.6
12 18.02 Ю 7 10 км ясно +30.7 +20.1 53 +37 +37 очень
душно
1010.0 1000.8 +34.2
00 19.02 ЮВ 2 8000 м дымка 4/4 600 м
[Sc Cs]
+25.5 +22.4 83 +33 +34 очень
душно
1012.6 1003.2 +25.1
03 19.02 ЮЗ 5 10 км 8/4 600 м
[Sc Cs]
+30.4 +23.0 65 +41 +44 опасность
перегрева
1015.0 1005.7
06 19.02 З 9 10 км 4/3 600 м
[Sc Cs]
+30.5 +22.8 64 +40 +42 очень
душно
1013.8 1004.5

 

Местоположение метеостанции Лаем-Чабанг (Таиланд): широта 15.08 долгота 100.88 высота над уровнем моря 82 м.

В архиве по умолчанию представлена погода в Лаем-Чабанге за последнюю неделю. Архивные данные за месяц целиком и за предыдущие месяцы, начиная с января 2011 года, Вы можете получить, выбрав интересующий диапазон дат из раскрывающегося списка и нажав кнопку "Ввод!".


*Определитесь, кто Вы:
робот инопланетянин человек

Внимание! Время в таблицах - всемирное. Для получения местного времени необходимо прибавить поправку, которая равна 7 ч.

Смотрите также архив погоды в соседних городах и на ближайших метеорологических станциях:

Погода в Буа Чум (Таиланд) (39 км)
Погода в Лопбури (Таиланд) (43 км)
Погода в Такфа Агромете (Таиланд) (51 км)
Погода в Сарабури (Таиланд) (62 км)
Погода в Аюттхая (Таиланд) (65 км)
Погода в Вичан Бури (Таиланд) (66 км)
Погода в Пакчонг Агромете (Таиланд) (69 км)
Погода в Чайнат Агромете (Таиланд) (76 км)
Погода в Утай Тани (Таиланд) (96 км)
Погода в Суфанбури (Таиланд) (105 км)

Пояснения к столбцам:

Ветер - указаны скорость ветра в м/с - средняя за 10 мин, порывы в срок и между сроками (в фигурных скобках) и направление, откуда дует ветер: С - северный, СВ - северо-восточный, В - восточный, ЮВ - юго-восточный, Ю - южный, ЮЗ - юго-западный, З - западный, СЗ - северо-западный.
Видимость - горизонтальная дальность видимости в метрах или километрах. При видимости от 1 до 10 км при отсутствии осадков обычно наблюдается дымка, при ухудшении видимости до 1 км и менее - туман. В сухую погоду видимость может ухудшаться дымом, пылью или мглою.
Явления - указаны атмосферные явления, наблюдавшиеся в срок или в последний час перед сроком; фигурными скобками обозначены явления, наблюдавшиеся между сроками (за 1-3 часа до срока); квадратными скобками обозначены град или гололедные отложения с указанием их диаметра в мм.
Облачность - указаны через наклонную черту общая и нижняя облачность в баллах и высота нижней границы облаков в метрах; квадратными скобками обозначены формы облаков: Ci - перистые, Cs - перисто-слоистые, Cc - перисто-кучевые, Ac - высококучевые, As - высокослоистые, Sc - слоисто-кучевые, Ns - слоисто-дождевые, Cu - кучевые, Cb - кучево-дождевые. Подробнее классификацию облаков см. в Атласе облаков (PDF).
T - Температура воздуха - температура, измеренная на высоте 2 м над землей.
Td - Температура точки росы - температура, при понижении до которой содержащийся в воздухе водяной пар достигнет насыщения.
f - Относительная влажность воздуха - влажноcть воздуха, измеренная на высоте 2 м над землей.
Te - Эффективная температура - температура, которую ощущает одетый по сезону человек в тени. Характеристика душности погоды. При расчете учитывается влияние влажности воздуха и скорости ветра на теплоощущения человека.
Tes - Эффективная температура на солнце - температура, которую ощущает человек, с поправкой на солнечный нагрев. Характеристика знойности погоды. Зависит от высоты солнца над горизонтом, облачности и скорости ветра. Ночью, в пасмурную погоду, а также при ветре 12 м/с и более поправка равна нулю.
P - Атмосферное давление - приведенное к уровню моря атмосферное давление.
Po - Атмосферное давление - измеренное на уровне метеостанции атмосферное давление.
Tmin - Минимальная температура - минимум температуры воздуха на высоте 2 м над землей.
Tmax - Максимальная температура - максимум температуры воздуха на высоте 2 м над землей.
R - Количество осадков - Количество выпавших осадков за период времени, мм. При наведении курсора мыши на число - период времени, за который выпало указанное количество осадков.
R24 - Количество осадков - Количество выпавших осадков за 24 часа, мм.
S - Снежный покров - Высота снежного покрова, см. При наведении курсора мыши на число - состояние снежного покрова и степень покрытия местности в баллах.